SCP
0 0 0 0 0 0 0 0 0 0 0 0 0 0 0 0 0 0 0 0 0 0 0 0 0 0 0 0 0 0 0 0 0 0 0 0 0 0 0 0 0 0 0
0 0 0 0 0 0 0 0 0 0 0 0 0 0 0 0 0 0 0 0 0 0 0 0 0 0 0 0 0 0 0 0 0 0 0 0 0 0 0 0 0 0 0
0 0 0 0 0 0 0 0 0 0 0 0 0 0 0 0 0 0 0 0 0 0 0 0 0 0 0 0 0 0 0 0 0 0 0 0 0 0 0 0 0 0 0
0 0 0 0 0 0 0 0 0 0 0 0 0 0 0 0 0 0 0 0 0 0 0 0 0 0 0 0 0 0 0 0 0 0 0 0 0 0 0 0 0 0 0
0 0 0 0 0 0 0 0 0 0 0 0 0 0 0 0 0 0 0 0 0 0 0 0 0 0 0 0 0 0 0 0 0 0 0 0 0 0 0 0 0 0 0
0 0 0 0 0 0 0 0 0 0 0 0 0 0 0 0 0 0 0 0 0 0 0 0 0 0 0 0 0 0 0 0 0 0 0 0 0 0 0 0 0 0 0
0 0 0 0 0 0 0 0 0 0 0 0 0 0 0 0 0 0 0 0 0 0 0 0 0 0 0 0 0 0 0 0 0 0 0 0 0 0 0 0 0 0 0
0 0 0 0 0 0 0 0 0 0 0 0 0 0 0 0 0 0 0 0 0 0 0 0 0 0 0 0 0 0 0 0 0 0 0 0 0 0 0 0 0 0 0
0 0 0 0 0 0 0 0 0 0 0 0 0 0 0 0 0 0 0 0 0 0 0 0 0 0 0 0 0 0 0 0 0 0 0 0 0 0 0 0 0 0 0
0 0 0 0 0 0 0 0 0 0 0 0 0 0 0 0 0 0 0 0 0 0 0 0 0 0 0 0 0 0 0 0 0 0 0 0 0 0 0 0 0 0 0
0 0 0 0 0 0 0 0 0 0 0 0 0 0 0 0 0 0 0 0 0 0 0 0 0 0 0 0 0 0 0 0 0 0 0 0 0 0 0 0 0 0 0
0 0 0 0 0 0 0 0 0 0 0 0 0 0 0 0 0 0 0 0 0 0 0 0 0 0 0 0 0 0 0 0 0 0 0 0 0 0 0 0 0 0 0
0 0 0 0 0 0 0 0 0 0 0 0 0 0 0 0 0 0 0 0 0 0 0 0 0 0 0 0 0 0 0 0 0 0 0 0 0 0 0 0 0 0 0
0 0 0 0 0 0 0 0 0 0 0 0 0 0 0 0 0 0 0 0 0 0 0 0 0 0 0 0 0 0 0 0 0 0 0 0 0 0 0 0 0 0 0
0 0 0 0 0 0 0 0 0 0 0 0 0 0 0 0 0 0 0 0 0 0 0 0 0 0 0 0 0 0 0 0 0 0 0 0 0 0 0 0 0 0 0
0 0 0 0 0 0 0 0 0 0 0 0 0 0 0 0 0 0 0 0 0 0 0 0 0 0 0 0 0 0 0 0 0 0 0 0 0 0 0 0 0 0 0
0 0 0 0 0 0 0 0 0 0 0 0 0 0 0 0 0 0 0 0 0 0 0 0 0 0 0 0 0 0 0 0 0 0 0 0 0 0 0 0 0 0 0
0 0 0 0 0 0 0 0 0 0 0 0 0 0 0 0 0 0 0 0 0 0 0 0 0 0 0 0 0 0 0 0 0 0 0 0 0 0 0 0 0 0 0
0 0 0 0 0 0 0 0 0 0 0 0 0 0 0 0 0 0 0 0 0 0 0 0 0 0 0 0 0 0 0 0 0 0 0 0 0 0 0 0 0 0 0
0 0 0 0 0 0 0 0 0 0 0 0 0 0 0 0 0 0 0 0 0 0 0 0 0 0 0 0 0 0 0 0 0 0 0 0 0 0 0 0 0 0 0
0 0 0 0 0 0 0 0 0 0 0 0 0 0 0 0 0 0 0 0 0 0 0 0 0 0 0 0 0 0 0 0 0 0 0 0 0 0 0 0 0 0 0
0 0 0 0 0 0 0 0 0 0 0 0 0 0 0 0 0 0 0 0 0 0 0 0 0 0 0 0 0 0 0 0 0 0 0 0 0 0 0 0 0 0 0
0 0 0 0 0 0 0 0 0 0 0 0 0 0 0 0 0 0 0 0 0 0 0 0 0 0 0 0 0 0 0 0 0 0 0 0 0 0 0 0 0 0 0
0 0 0 0 0 0 0 0 0 0 0 0 0 0 0 0 0 0 0 0 0 0 0 0 0 0 0 0 0 0 0 0 0 0 0 0 0 0 0 0 0 0 0
0 0 0 0 0 0 0 0 0 0 0 0 0 0 0 0 0 0 0 0 0 0 0 0 0 0 0 0 0 0 0 0 0 0 0 0 0 0 0 0 0 0 0
0 0 0 0 0 0 0 0 0 0 0 0 0 0 0 0 0 0 0 0 0 0 0 0 0 0 0 0 0 0 0 0 0 0 0 0 0 -0 0 0 0 0 -0
Wind_Speed
10 9 9 8 9 9 9 9 9 8 10 10 9 8 8 7 6 5 5 5 5 4 4 4 5 4 3 3 3 4 4 5 9 7 4 5 5 6 6 5 6 7 8
9 9 9 8 9 9 9 9 9 10 9 9 8 8 7 7 6 6 5 5 5 5 5 5 5 4 5 5 4 5 5 6 7 10 6 4 5 6 6 7 7 8 7
9 9 9 9 10 10 9 9 10 10 9 8 8 8 7 7 6 5 5 5 5 5 5 5 6 5 6 5 5 6 5 6 5 7 7 4 4 5 6 7 8 7 9
9 9 10 10 10 10 9 9 9 10 9 9 8 7 7 6 6 5 4 4 4 4 5 5 6 6 7 7 6 6 5 5 5 6 7 6 5 6 6 7 7 5 7
9 9 9 9 9 9 9 9 9 9 9 8 7 7 6 6 6 6 5 5 5 5 6 6 7 10 12 11 8 6 6 5 5 6 8 7 7 5 6 6 8 7 6
9 9 9 9 9 9 9 9 9 8 7 7 7 7 6 5 9 11 8 5 5 6 7 7 8 10 14 18 20 18 13 9 7 7 8 9 9 7 7 7 7 8 8
9 8 9 9 9 9 9 9 9 8 7 7 7 7 6 7 11 12 12 7 6 6 7 7 7 8 12 8 12 17 15 18 18 11 10 10 10 8 8 9 8 9 10
8 8 9 9 9 8 9 9 8 7 7 6 6 6 5 7 11 12 12 7 6 7 7 7 8 8 8 9 7 7 7 8 11 9 9 10 10 9 9 11 11 10 8
8 8 9 9 9 9 9 8 6 6 5 5 6 6 5 6 10 11 11 4 5 7 7 8 8 8 14 17 10 8 8 8 13 18 20 19 21 22 18 8 7 8 10
8 8 8 8 9 8 8 6 5 5 5 5 4 5 5 5 9 11 11 4 5 6 6 7 12 13 16 18 9 7 9 8 8 10 12 14 12 13 18 10 6 7 8
7 7 7 7 7 7 6 5 5 4 4 4 4 4 5 6 8 11 12 5 5 6 5 5 6 15 18 19 16 9 13 14 8 8 7 6 6 5 6 6 5 5 7
8 8 7 7 6 6 6 5 5 5 4 4 3 4 3 4 6 9 13 13 10 6 6 5 6 16 19 20 15 16 22 20 7 6 6 5 5 5 5 5 6 6 6
8 7 7 7 5 5 5 5 4 4 3 3 3 3 3 3 5 11 13 14 15 9 6 13 16 19 19 14 17 22 18 8 5 6 7 6 4 5 4 4 5 5 6
8 7 6 6 5 4 3 3 3 3 3 3 3 4 4 3 3 3 4 6 10 9 8 12 18 19 15 16 16 12 7 7 7 6 6 5 3 3 3 3 4 4 4
8 6 5 4 4 3 3 3 3 4 5 4 4 4 4 5 7 10 7 5 4 6 8 5 5 6 6 6 6 6 5 5 6 4 4 4 4 4 4 3 3 4 4
7 5 4 3 3 2 2 0 2 3 5 7 7 7 6 10 13 14 15 16 17 17 12 6 7 7 7 6 6 6 5 5 5 4 4 4 4 4 4 3 3 4 5
6 5 4 3 3 2 2 2 2 3 5 7 9 11 12 13 15 15 16 17 18 17 9 6 7 7 6 6 5 5 5 4 4 4 4 3 4 4 4 4 4 4 5
6 5 4 2 2 2 1 2 2 2 3 3 6 11 13 15 15 15 17 14 8 7 5 7 7 6 6 5 5 5 4 4 3 3 3 3 3 3 4 5 4 5 5
4 3 2 2 1 1 1 1 2 3 3 4 3 5 11 13 14 15 14 6 6 6 6 6 6 6 5 5 5 4 4 4 4 3 3 4 3 4 4 5 5 8 6
3 3 2 1 0 0 1 2 2 3 4 4 4 4 4 5 4 5 5 5 5 6 6 6 5 5 5 5 5 4 4 4 4 4 4 3 3 4 5 6 5 4 4
2 1 1 0 1 1 2 2 3 3 4 5 5 7 12 6 5 5 5 5 5 6 6 5 5 5 5 4 4 5 5 4 4 4 3 3 3 4 4 4 4 4 4
2 1 0 1 1 2 3 3 3 4 5 6 5 6 14 8 5 5 5 5 5 5 5 5 5 5 4 4 4 4 5 5 4 3 3 4 4 4 4 4 4 4 4
1 0 1 2 2 5 4 3 3 4 5 5 6 6 6 5 6 6 6 5 5 5 5 5 5 5 4 4 4 4 5 5 4 4 4 4 4 4 4 4 5 5 4
0 1 2 2 2 3 3 4 4 5 5 6 6 6 6 6 6 7 6 6 5 5 5 5 5 6 7 6 4 4 4 5 5 4 6 5 5 4 4 4 5 5 5
1 1 2 2 3 3 4 4 5 5 6 6 6 6 6 6 6 7 6 6 7 6 7 6 5 6 8 8 7 6 10 15 13 8 5 5 6 6 6 6 5 5 5
1 2 2 2 3 3 4 4 5 5 6 7 7 6 7 7 7 7 6 6 6 6 6 6 7 8 8 7 9 12 16 17 16 16 8 5 6 6 6 6 7 7 7
Wind_Direction
174 169 164 164 159 155 156 157 154 151 153 157 158 158 161 166 170 172 183 185 194 207 208 214 230 229 229 232 229 230 233 231 261 272 263 277 290 297 305 302 300 296 297
169 165 164 159 155 156 158 157 154 153 156 158 157 159 165 170 174 179 190 191 197 212 220 223 235 235 236 235 234 237 239 236 252 274 278 277 279 285 287 290 297 297 291
164 163 161 160 160 161 160 158 155 154 156 157 158 164 169 172 177 185 190 195 204 214 219 225 235 237 246 244 242 244 246 252 251 269 281 277 279 283 288 287 284 282 287
164 164 165 167 166 163 160 158 157 156 158 161 163 166 169 172 178 185 190 199 214 227 231 234 237 238 244 247 250 250 251 259 264 271 279 282 279 277 279 285 288 273 280
165 168 169 165 161 159 158 157 155 156 159 159 160 164 167 172 183 186 192 204 220 238 245 244 244 245 249 253 254 248 245 253 260 268 276 282 281 281 277 278 287 285 273
166 168 162 159 159 159 157 154 152 154 155 158 166 170 177 187 196 199 198 205 217 230 243 248 250 253 258 264 267 267 260 256 257 261 272 275 278 275 278 280 286 292 290
164 161 159 158 159 159 155 152 157 161 161 166 173 177 187 198 203 212 216 212 220 232 241 249 258 258 265 256 266 271 271 271 269 269 269 270 276 276 277 278 274 277 282
159 159 158 156 156 154 156 161 163 164 167 172 180 183 190 205 211 221 226 224 230 240 244 248 254 258 256 264 255 254 251 257 264 269 263 266 268 268 261 269 274 278 276
159 159 157 156 156 158 162 165 163 162 168 173 177 184 196 215 220 225 228 220 234 246 249 252 257 260 271 278 274 265 264 261 272 275 276 278 281 287 290 289 285 289 291
157 152 150 151 154 159 161 160 156 159 166 169 181 193 205 219 228 231 231 219 237 249 252 254 264 272 279 282 275 265 270 270 267 274 275 279 281 283 289 283 273 281 287
134 134 137 142 146 149 149 148 149 152 159 176 195 210 217 224 234 238 241 230 230 245 252 254 259 278 282 283 282 273 275 282 271 266 267 267 268 267 268 263 255 256 274
123 126 129 132 136 141 144 149 153 157 170 191 207 228 235 235 237 247 254 257 258 251 255 256 265 281 282 284 285 282 286 290 281 275 271 267 266 266 263 261 260 252 250
119 122 124 124 128 138 147 154 159 164 176 199 208 229 243 242 252 258 264 268 271 270 266 274 280 284 287 287 285 287 287 282 270 269 267 262 253 255 260 269 273 266 265
121 123 125 129 134 137 139 149 160 176 189 204 219 234 245 251 252 256 258 270 275 278 279 281 285 286 285 284 285 284 272 261 265 262 261 259 257 260 265 268 275 281 283
119 121 122 125 130 134 142 165 178 198 197 205 218 222 237 253 256 268 276 270 265 266 284 276 271 273 265 265 267 266 262 266 270 257 260 265 265 267 271 266 268 277 276
121 122 123 124 127 134 145 181 238 234 247 249 252 255 259 267 282 285 287 289 291 291 291 280 276 273 274 274 275 271 265 261 257 255 254 256 264 271 276 270 269 271 275
121 123 121 125 135 150 163 185 256 287 273 273 276 280 281 286 290 293 294 294 293 295 287 276 276 277 276 274 272 270 269 264 260 255 253 254 260 267 272 272 270 271 272
110 116 123 132 144 161 187 211 225 251 278 283 282 284 288 290 292 295 296 299 292 286 269 273 276 277 275 274 274 275 272 268 260 255 252 252 256 268 276 273 270 267 272
108 112 115 118 127 168 219 243 254 261 267 275 281 287 289 293 295 294 298 286 278 276 271 273 274 276 277 275 272 271 265 260 256 254 252 249 247 252 267 271 267 273 279
101 110 109 116 137 252 259 261 266 269 274 278 279 280 289 292 284 287 280 270 273 276 276 276 274 273 273 269 268 264 261 257 254 250 250 250 249 251 260 267 265 264 265
100 104 95 102 227 246 254 259 264 269 275 278 277 289 300 296 285 283 279 275 273 276 278 278 275 274 270 267 266 264 262 260 249 244 247 248 249 257 260 260 262 261 264
96 107 157 232 252 260 271 266 271 275 279 284 287 296 301 296 285 281 280 279 273 270 270 271 271 267 263 262 263 265 264 262 251 243 247 248 248 254 259 263 264 261 262
91 255 272 269 266 286 293 282 280 280 283 285 289 290 289 281 280 282 281 279 275 273 271 269 270 267 262 258 252 251 255 256 248 239 241 247 248 250 250 257 265 265 262
288 268 273 279 280 276 278 281 282 284 285 285 286 286 285 283 284 286 285 283 281 278 274 270 269 270 270 268 260 252 247 250 244 234 232 238 244 247 245 249 256 258 258
289 283 283 283 283 285 288 288 288 288 289 292 293 293 292 291 290 289 287 283 283 281 280 276 272 272 270 268 265 258 267 273 272 260 230 227 235 236 239 245 252 255 250
295 294 293 291 289 289 289 290 290 291 291 293 293 290 290 289 287 286 285 282 282 281 281 277 273 272 271 270 267 271 277 277 274 271 256 231 229 232 233 240 244 246 245